Content
SEND FEEDBACK

Daily
Averages
Monthly
Summary
United States of America

ENGLISH BAY, ALASKA


Home > North America > United States > Alaska
Elevation: 113 feet     Latitude: 59 41N     Longitude: 151 38W

WEATHER
 
SELECT A DAY
Number of Records: 194,202;   Date Range: 1/1/95 - 9/30/14
 
SHARE

PRINT THIS DATA

[ ← Previous Day ]
WEATHER ALMANAC - JANUARY 31, 2013
[ Next Day → ]
[ °C ]   °F
Weather ElementAverageHighLow
Temperature34.7 °F36 °F (6:53 am)32 °F (11:03 pm)
Dewpoint32.7 °F34 °F (6:53 am)30 °F (11:53 pm)
Humidity92.6 %100 % (11:21 am)87 % (10:00 am)
Barometer29.84 in29.91 in (11:27 pm)29.72 in (1:53 am)
Wind Speed1.7 mph5.8 mph (9:42 pm)
Weather ElementAverage
Visibility4.3 mi
Wind DirectionNNE (22.5 °)

Weather ElementTotal
Precipitation0.17 in
Heating Degree Days31 (Base 65)
Averaged from 59 records on January 31, 2013
WEATHER CONDITIONS BREAKOUT
WIND DIRECTION BREAKOUT
WEATHER BY HOUR - JANUARY 31, 2013
[ °C ]   °F
Local TimeTemperatureDewpointHumidityBarometerVisibilityWind DirectionWind SpeedGust SpeedPrecipitationEventsConditions
1:53 AM35.1 °F33.1 °F92 %29.72 in3.0 miCalm0.02 inOvercast
2:39 AM35.6 °F33.8 °F93 %29.73 in4.0 miNNE (20°)4.6 mph0.03 inRainLight Rain
2:48 AM35.6 °F33.8 °F93 %29.73 in4.0 miNE (40°)3.5 mph0.03 inRainLight Rain
4:12 AM35.6 °F33.8 °F93 %29.75 in9.0 miNorth0.01 inRainLight Rain
4:37 AM35.6 °F33.8 °F93 %29.75 in2.5 miCalm0.02 inRainLight Rain
4:41 AM35.6 °F33.8 °F93 %29.75 in1.8 miCalm0.02 inRainLight Rain
4:53 AM35.1 °F33.1 °F92 %29.76 in4.0 miCalm0.02 inOvercast
5:12 AM35.6 °F33.8 °F93 %29.76 in10.0 miCalm0.01 inOvercast
5:53 AM35.1 °F33.1 °F92 %29.78 in2.5 miCalm0.01 inOvercast
6:01 AM35.6 °F33.8 °F93 %29.77 in5.0 miCalm0.00 inOvercast
6:42 AM35.6 °F33.8 °F93 %29.78 in9.0 miCalm0.00 inOvercast
6:53 AM36.0 °F34.0 °F93 %29.79 in10.0 miCalm0.00 inOvercast
7:09 AM33.8 °F32.0 °F93 %29.78 in2.0 miCalmOvercast
7:19 AM33.8 °F32.0 °F93 %29.79 in6.0 miCalmOvercast
7:34 AM33.8 °F32.0 °F93 %29.79 in4.0 miCalmOvercast
7:51 AM35.6 °F33.8 °F93 %29.79 in3.0 miENE (60°)3.5 mphOvercast
7:53 AM35.1 °F33.1 °F92 %29.79 in4.0 miENE (60°)3.5 mphOvercast
8:13 AM33.8 °F32.0 °F93 %29.79 in4.0 miCalmOvercast
8:25 AM33.8 °F32.0 °F93 %29.79 in8.0 miNNE (30°)3.5 mphOvercast
8:41 AM35.6 °F33.8 °F93 %29.80 in10.0 miCalmOvercast
8:53 AM35.1 °F33.1 °F92 %29.81 in6.0 miCalmOvercast
9:03 AM35.6 °F33.8 °F93 %29.81 in2.0 miCalmOvercast
9:19 AM35.6 °F33.8 °F93 %29.81 in7.0 miCalmScattered Clouds
9:53 AM33.1 °F30.9 °F92 %29.82 in7.0 miCalmScattered Clouds
10:00 AM33.8 °F30.2 °F87 %29.82 in0.2 miCalmFogFog
10:53 AM33.1 °F32.0 °F96 %29.83 in0.2 miNE (50°)4.6 mphFogFog
11:21 AM33.8 °F33.8 °F100 %29.84 in3.0 miCalmMostly Cloudy
11:28 AM33.8 °F33.8 °F100 %29.84 in2.0 miCalmMostly Cloudy
11:53 AM35.1 °F33.1 °F92 %29.86 in2.0 miCalmMostly Cloudy
12:00 PM33.8 °F33.8 °F100 %29.86 in10.0 miCalmOvercast
12:07 PM35.6 °F33.8 °F93 %29.86 in1.5 miCalmOvercast
12:21 PM35.6 °F33.8 °F93 %29.87 in1.0 miENE (70°)3.5 mphOvercast
12:31 PM35.6 °F33.8 °F93 %29.87 in0.5 miCalmFogFog
12:53 PM35.1 °F34.0 °F96 %29.88 in0.5 miCalmFogFog
1:53 PM35.1 °F33.1 °F92 %29.88 in0.2 miENE (60°)3.5 mphFogFog
2:02 PM35.6 °F33.8 °F93 %29.87 in0.2 miENE (60°)3.5 mphFogFog
2:53 PM35.1 °F34.0 °F96 %29.88 in0.2 miNE (50°)3.5 mphFogFog
3:07 PM35.6 °F33.8 °F93 %29.87 in0.2 miEast (80°)4.6 mphFogFog
3:15 PM35.6 °F33.8 °F93 %29.87 in1.0 miEast (80°)3.5 mphOvercast
3:27 PM35.6 °F33.8 °F93 %29.87 in7.0 miCalmOvercast
3:34 PM35.6 °F33.8 °F93 %29.87 in5.0 miENE (70°)3.5 mphOvercast
3:53 PM35.1 °F33.1 °F92 %29.87 in10.0 miEast (80°)3.5 mphOvercast
4:06 PM35.6 °F33.8 °F93 %29.87 in10.0 miENE (70°)4.6 mphOvercast
4:53 PM34.0 °F32.0 °F92 %29.88 in7.0 miCalmOvercast
5:53 PM35.1 °F32.0 °F89 %29.88 in9.0 miCalmOvercast
6:18 PM35.6 °F33.8 °F93 %29.89 in10.0 miCalmOvercast
6:53 PM35.1 °F33.1 °F92 %29.89 in7.0 miCalmOvercast
7:53 PM35.1 °F32.0 °F89 %29.89 in9.0 miCalmOvercast
8:53 PM34.0 °F32.0 °F92 %29.89 in9.0 miCalmOvercast
9:14 PM33.8 °F32.0 °F93 %29.89 in3.0 miCalmOvercast
9:29 PM33.8 °F30.2 °F87 %29.90 in2.0 miNE (40°)3.5 mphOvercast
9:42 PM33.8 °F30.2 °F87 %29.89 in1.2 miNNE (20°)5.8 mphOvercast
9:53 PM33.1 °F30.9 °F92 %29.89 in1.5 miNNE (20°)5.8 mphOvercast
9:57 PM33.8 °F30.2 °F87 %29.89 in3.0 miNNE (20°)3.5 mphOvercast
10:13 PM33.8 °F30.2 °F87 %29.89 in1.8 miENE (70°)3.5 mphOvercast
10:53 PM33.1 °F30.9 °F92 %29.90 in1.2 miEast (100°)3.5 mphOvercast
11:03 PM32.0 °F30.2 °F93 %29.90 in0.5 miENE (60°)3.5 mphFogFog
11:27 PM32.0 °F30.2 °F93 %29.91 in1.2 miENE (60°)5.8 mphOvercast
11:53 PM32.0 °F30.0 °F92 %29.91 in2.0 miENE (60°)5.8 mphOvercast
Hourly data recorded from PAHO, located miles away from English Bay, Alaska







STORIES FROM OUR PARTNERS